Location: ?????
(30.2541°N, 31.0910°E)
Time: 11:08:27
(UTC+00:00)

Cosmos 1346 Rocket - Pass Details

Date: 27 September 2022
Orbit: 525 x 541 km, 81.2° (Epoch: 27 November)

Event Time Altitude Azimuth Distance (km) Brightness Sun altitude
Exits shadow 01:42:04 41° 92° (E) 789 3.9 -27.4°
Drops below altitude 10° 01:45:46 10° 23° (NNE) 1,803 5.9 -26.7°
Sets 01:48:00 0° 17° (NNE) 2,696 6.8 -26.2°
